When you browse on this site, cookies collect data to enhance your experience and personalize the content and advertising you see.
Visit our Privacy Policy to learn more. By continuing to use the site, you agree to this use of cookies and data.
  • In France
  • List of Countries
  • For 7 days
  • Water Temperature
  • Weather Map
  • Weather Widgets
  • user-avatar
    Login

    Hourly Weather Briton Ferry

    Today, 30 May, Saturday

    Time Temperature Precipitation Wind Pressure Humidity
    00:00 +12°C° 0 mm 3 mps 764 mmHg 86%
    01:00 +11°C° 0 mm 3 mps 764 mmHg 84%
    02:00 +11°C° 0 mm 3 mps 764 mmHg 82%
    03:00 +10°C° 0 mm 4 mps 764 mmHg 80%
    04:00 +10°C° 0 mm 4 mps 764 mmHg 77%
    05:00 +11°C° 0 mm 4 mps 764 mmHg 73%
    06:00 +11°C° 0 mm 4 mps 764 mmHg 69%
    07:00 +13°C° 0 mm 4 mps 764 mmHg 65%
    08:00 +14°C° 0 mm 4 mps 764 mmHg 61%
    09:00 +16°C° 0 mm 5 mps 764 mmHg 57%
    10:00 +17°C° 0 mm 5 mps 764 mmHg 58%
    11:00 +19°C° 0 mm 5 mps 763 mmHg 59%
    12:00 +20°C° 0 mm 5 mps 763 mmHg 60%
    13:00 +21°C° 0 mm 5 mps 763 mmHg 60%
    14:00 +21°C° 0 mm 4 mps 763 mmHg 61%
    15:00 +22°C° 0 mm 4 mps 763 mmHg 61%
    16:00 +21°C° 0 mm 3 mps 762 mmHg 65%
    17:00 +21°C° 0 mm 3 mps 762 mmHg 69%
    18:00 +21°C° 0 mm 3 mps 762 mmHg 73%
    19:00 +19°C° 0 mm 3 mps 762 mmHg 77%
    20:00 +17°C° 0 mm 3 mps 762 mmHg 81%
    21:00 +15°C° 0 mm 4 mps 763 mmHg 85%
    22:00 +14°C° 0 mm 4 mps 763 mmHg 86%
    23:00 +13°C° 0 mm 4 mps 763 mmHg 87%

    Tomorrow, 31 May, Sunday

    Time Temperature Precipitation Wind Pressure Humidity
    00:00 +12°C° 0 mm 4 mps 763 mmHg 88%
    01:00 +12°C° 0 mm 4 mps 763 mmHg 87%
    02:00 +11°C° 0 mm 4 mps 763 mmHg 87%
    03:00 +11°C° 0 mm 4 mps 763 mmHg 87%
    04:00 +11°C° 0 mm 4 mps 763 mmHg 86%
    05:00 +12°C° 0 mm 4 mps 763 mmHg 85%
    06:00 +12°C° 0 mm 4 mps 763 mmHg 84%
    07:00 +14°C° 0 mm 5 mps 763 mmHg 79%
    08:00 +16°C° 0 mm 5 mps 763 mmHg 74%
    09:00 +17°C° 0 mm 6 mps 763 mmHg 69%
    10:00 +19°C° 0 mm 6 mps 763 mmHg 66%
    11:00 +20°C° 0 mm 6 mps 763 mmHg 63%
    12:00 +21°C° 0 mm 6 mps 764 mmHg 59%
    13:00 +21°C° 0 mm 5 mps 763 mmHg 60%
    14:00 +21°C° 0 mm 5 mps 763 mmHg 60%
    15:00 +22°C° 0 mm 5 mps 763 mmHg 60%
    16:00 +21°C° 0 mm 4 mps 763 mmHg 64%
    17:00 +21°C° 0 mm 4 mps 763 mmHg 67%
    18:00 +20°C° 0 mm 3 mps 763 mmHg 71%
    19:00 +18°C° 0 mm 4 mps 764 mmHg 75%
    20:00 +16°C° 0 mm 5 mps 764 mmHg 78%
    21:00 +14°C° 0 mm 5 mps 764 mmHg 81%
    22:00 +13°C° 0 mm 5 mps 764 mmHg 83%
    23:00 +13°C° 0 mm 5 mps 764 mmHg 84%

    Day after tomorrow, 1 June, Monday

    Time Temperature Precipitation Wind Pressure Humidity
    00:00 +12°C° 0 mm 5 mps 765 mmHg 85%
    01:00 +10°C° 0 mm 5 mps 765 mmHg 85%
    02:00 +9°C° 0 mm 5 mps 765 mmHg 86%
    03:00 +9°C° 0 mm 5 mps 765 mmHg 87%
    04:00 +9°C° 0 mm 5 mps 765 mmHg 85%
    05:00 +10°C° 0 mm 5 mps 765 mmHg 83%
    06:00 +12°C° 0 mm 5 mps 765 mmHg 81%
    07:00 +13°C° 0 mm 5 mps 765 mmHg 77%
    08:00 +15°C° 0 mm 5 mps 765 mmHg 73%
    09:00 +17°C° 0 mm 6 mps 765 mmHg 70%
    10:00 +19°C° 0 mm 5 mps 765 mmHg 68%
    11:00 +20°C° 0 mm 5 mps 765 mmHg 67%
    12:00 +20°C° 0 mm 5 mps 765 mmHg 65%
    13:00 +21°C° 0 mm 5 mps 764 mmHg 65%
    14:00 +21°C° 0 mm 4 mps 764 mmHg 65%
    15:00 +21°C° 0 mm 3 mps 764 mmHg 66%
    16:00 +21°C° 0 mm 3 mps 764 mmHg 68%
    17:00 +20°C° 0 mm 3 mps 764 mmHg 71%
    18:00 +20°C° 0 mm 3 mps 763 mmHg 74%
    19:00 +18°C° 0 mm 3 mps 764 mmHg 79%
    20:00 +17°C° 0 mm 4 mps 764 mmHg 84%
    21:00 +14°C° 0 mm 4 mps 764 mmHg 88%
    22:00 +13°C° 0 mm 4 mps 764 mmHg 89%
    23:00 +12°C° 0 mm 4 mps 764 mmHg 91%

    2 June, Tuesday

    Time Temperature Precipitation Wind Pressure Humidity
    00:00 +11°C° 0 mm 4 mps 764 mmHg 92%
    01:00 +10°C° 0 mm 3 mps 764 mmHg 92%
    02:00 +10°C° 0 mm 3 mps 764 mmHg 92%
    03:00 +9°C° 0 mm 3 mps 764 mmHg 93%
    04:00 +9°C° 0 mm 3 mps 763 mmHg 91%
    05:00 +10°C° 0 mm 2 mps 763 mmHg 89%
    06:00 +12°C° 0 mm 2 mps 763 mmHg 87%
    07:00 +13°C° 0 mm 2 mps 763 mmHg 78%
    08:00 +15°C° 0 mm 2 mps 763 mmHg 70%
    09:00 +17°C° 0 mm 2 mps 763 mmHg 62%
    10:00 +19°C° 0 mm 1 mps 763 mmHg 59%
    11:00 +20°C° 0 mm 1 mps 762 mmHg 56%
    12:00 +22°C° 0 mm 1 mps 762 mmHg 53%
    13:00 +21°C° 0 mm 2 mps 762 mmHg 54%
    14:00 +21°C° 0 mm 2 mps 761 mmHg 55%
    15:00 +21°C° 0 mm 2 mps 761 mmHg 57%
    16:00 +20°C° 0 mm 2 mps 760 mmHg 61%
    17:00 +19°C° 0 mm 3 mps 760 mmHg 66%
    18:00 +19°C° 0 mm 3 mps 759 mmHg 70%
    19:00 +17°C° 0 mm 3 mps 759 mmHg 73%
    20:00 +16°C° 0 mm 3 mps 759 mmHg 76%
    21:00 +14°C° 0 mm 2 mps 759 mmHg 79%
    22:00 +13°C° 0 mm 3 mps 758 mmHg 81%
    23:00 +12°C° 0 mm 3 mps 758 mmHg 82%

    3 June, Wednesday

    Time Temperature Precipitation Wind Pressure Humidity
    00:00 +11°C° 0 mm 3 mps 758 mmHg 84%
    01:00 +12°C° 0 mm 3 mps 757 mmHg 83%
    02:00 +12°C° 0 mm 3 mps 757 mmHg 83%
    03:00 +12°C° 0 mm 3 mps 756 mmHg 83%
    04:00 +12°C° 0.1 mm 3 mps 756 mmHg 85%
    05:00 +12°C° 0.1 mm 3 mps 756 mmHg 87%
    06:00 +12°C° 0.1 mm 4 mps 755 mmHg 89%
    07:00 +12°C° 0.3 mm 4 mps 755 mmHg 90%
    08:00 +12°C° 0.3 mm 3 mps 755 mmHg 90%
    09:00 +12°C° 0.3 mm 3 mps 755 mmHg 91%
    10:00 +12°C° 1.1 mm 4 mps 755 mmHg 91%
    11:00 +12°C° 1.1 mm 5 mps 755 mmHg 91%
    12:00 +11°C° 1.1 mm 6 mps 755 mmHg 91%
    13:00 +11°C° 0.7 mm 7 mps 755 mmHg 90%
    14:00 +11°C° 0.7 mm 7 mps 754 mmHg 89%
    15:00 +11°C° 0.7 mm 8 mps 754 mmHg 88%
    16:00 +10°C° 0.4 mm 8 mps 754 mmHg 89%
    17:00 +10°C° 0.4 mm 8 mps 754 mmHg 90%
    18:00 +9°C° 0.4 mm 8 mps 754 mmHg 90%
    19:00 +9°C° 0.1 mm 7 mps 754 mmHg 90%
    20:00 +9°C° 0.1 mm 7 mps 755 mmHg 90%
    21:00 +9°C° 0.1 mm 6 mps 755 mmHg 89%
    22:00 +8°C° 0 mm 6 mps 755 mmHg 89%
    23:00 +7°C° 0 mm 6 mps 754 mmHg 89%

    4 June, Thursday

    Time Temperature Precipitation Wind Pressure Humidity
    00:00 +7°C° 0 mm 5 mps 754 mmHg 89%
    01:00 +6°C° 0 mm 5 mps 754 mmHg 90%
    02:00 +6°C° 0 mm 5 mps 753 mmHg 90%
    03:00 +6°C° 0 mm 5 mps 753 mmHg 90%
    04:00 +6°C° 0 mm 5 mps 753 mmHg 88%
    05:00 +7°C° 0 mm 5 mps 752 mmHg 86%
    06:00 +7°C° 0 mm 5 mps 752 mmHg 84%
    07:00 +8°C° 0 mm 5 mps 752 mmHg 80%
    08:00 +10°C° 0 mm 6 mps 752 mmHg 75%
    09:00 +11°C° 0 mm 6 mps 752 mmHg 71%
    10:00 +13°C° 0 mm 6 mps 751 mmHg 71%
    11:00 +13°C° 0 mm 5 mps 751 mmHg 70%
    12:00 +14°C° 0 mm 5 mps 751 mmHg 70%
    13:00 +14°C° 0 mm 5 mps 750 mmHg 71%
    14:00 +14°C° 0 mm 4 mps 750 mmHg 72%
    15:00 +14°C° 0 mm 4 mps 750 mmHg 73%
    16:00 +14°C° 0 mm 4 mps 749 mmHg 75%
    17:00 +14°C° 0 mm 4 mps 749 mmHg 77%
    18:00 +13°C° 0 mm 4 mps 749 mmHg 79%
    19:00 +12°C° 0 mm 3 mps 749 mmHg 82%
    20:00 +11°C° 0 mm 3 mps 748 mmHg 85%
    21:00 +10°C° 0 mm 3 mps 748 mmHg 87%
    22:00 +9°C° 0 mm 3 mps 748 mmHg 88%
    23:00 +8°C° 0 mm 2 mps 747 mmHg 89%
    Show more